If you wish to contribute or participate in the discussions about articles you are invited to join SKYbrary as a registered user

 Actions

Payerne Airport

From SKYbrary Wiki

LSMP
Airport
ICAO: LSMP
Summary
Name Payerne Airport
Region Europe
Territory Switzerland CH.gif
Location , Fribourg
Serving Payerne
Elevation 446.532 m
1,465 ft
1,465 ft446.532 m
Type medium airport
Coordinates 46° 50' 35.55" N, 6° 54' 54.21" E
Runways
Designator Length Width Surface ROPS
5/23 2858 m9,376.64 ft
40 m131.234 ft
ASP /


METAR
Observation LSMP 191320Z AUTO 04012KT 010V070 9999NDV NCD 04/M02 Q1033 RMK
Station Payerne
Date/Time 19 January 2020 13:20:00
Wind direction 40°
Wind speed 12 kts
Lowest cloud amount n/a
Temperature 4°C
Dew point
Humidity 64%
QNH 1033 hPa
Weather condition n/a